Regional Weather Roundup
Issued by NWS

Home | Current Version | Previous Version | Text Only | Print | Product List | Glossary Off
Versions: 1 2 3 4 5 6 7 8 9 10 11 12 13 14 15 16 17 18 19 20 21 22 23 24 25 26 27 28 29 30 31 32 33 34 35 36 37 38 39 40 41 42 43 44 45 46 47 48 49 50

000
ASUS43 KBIS 240602
RWRND

NORTH DAKOTA REGIONAL WEATHER ROUNDUP
NATIONAL WEATHER SERVICE BISMARCK ND
100 AM CDT TUE OCT 24 2017

NOTE: "FAIR" INDICATES FEW OR NO CLOUDS BELOW 12,000 FEET WITH NO
SIGNIFICANT WEATHER AND/OR OBSTRUCTIONS TO VISIBILITY.


NDZ001>003-009>011-017-240700-
NORTHWEST NORTH DAKOTA

CITY           SKY/WX    TMP DP  RH WIND       PRES   REMARKS
WILLISTON      CLEAR     38  29  70 W10       30.40F
6HR MIN TEMP:  37; 6HR MAX TEMP:  50;

MINOT          CLEAR     39  29  67 W15       30.31F
MINOT AFB      CLEAR     34  28  78 NW12      30.29F
$$

NDZ018>021-031>035-040>046-240700-
SOUTHWEST NORTH DAKOTA

CITY           SKY/WX    TMP DP  RH WIND       PRES   REMARKS
BISMARCK       CLEAR     43  31  62 NW13G20   30.32S
6HR MIN TEMP:  43; 6HR MAX TEMP:  52;

DICKINSON      CLEAR     30  24  78 W8        30.39R
GARRISON         N/A     35  29  78 NW13      30.33S
6HR MIN TEMP:  35; 6HR MAX TEMP:  46;

HETTINGER ARPT CLEAR     38  26  62 NW16      30.40F
$$

NDZ004>008-012>016-024-026-027-054-240700-
NORTHEAST NORTH DAKOTA

CITY           SKY/WX    TMP DP  RH WIND       PRES   REMARKS
GRAND FORKS    CLEAR     34  30  85 N14       30.17S
GRND FRKS AFB  CLEAR     35  29  77 N13G22    30.17F
DEVILS LAKE    CLEAR     34  28  79 N10       30.23S
$$

NDZ022-023-025-028>030-036>039-047>053-240700-
SOUTHEAST NORTH DAKOTA

CITY           SKY/WX    TMP DP  RH WIND       PRES   REMARKS
FARGO          CLEAR     36  30  79 N18       30.14R
6HR MIN TEMP:  36; 6HR MAX TEMP:  48; 6HR PCP: TRACE;

JAMESTOWN      CLEAR     37  28  70 N16       30.20S
$$





USA.gov is the U.S. government's official web portal to all federal, state and local government web resources and services.